| time (UTC) | temp F | wind direction | speed knots | gust knots | rain 1hr in | rain 24hr in | rain mn in | humidity % | barometer mb |
| 20260505065505 | 53 | 0 | 0.0 | 0.0 | 0.00 | 0.00 | 0.00 | 81 | 1010.3 |
| 20260505065005 | 54 | 159 | 0.0 | 0.9 | 0.00 | 0.00 | 0.00 | 81 | 1010.2 |
| 20260505063504 | 54 | 160 | 0.0 | 0.9 | 0.00 | 0.00 | 0.00 | 80 | 1010.3 |
| 20260505063005 | 54 | 160 | 0.0 | 1.7 | 0.00 | 0.00 | 0.00 | 79 | 1010.4 |
| 20260505062505 | 55 | 159 | 0.0 | 1.7 | 0.00 | 0.00 | 0.00 | 78 | 1010.4 |
| 20260505061504 | 56 | 160 | 0.0 | 0.9 | 0.00 | 0.00 | 0.00 | 76 | 1010.4 |
| 20260505061005 | 57 | 155 | 0.0 | 2.6 | 0.00 | 0.00 | 0.00 | 75 | 1010.3 |
| 20260505055505 | 59 | 192 | 1.7 | 3.5 | 0.00 | 0.00 | 0.00 | 71 | 1010.4 |
| 20260505055005 | 59 | 191 | 1.7 | 3.5 | 0.00 | 0.00 | 0.00 | 70 | 1010.3 |
| 20260505054505 | 60 | 190 | 1.7 | 6.1 | 0.00 | 0.00 | 0.00 | 70 | 1010.4 |
| 20260505054006 | 60 | 195 | 1.7 | 7.8 | 0.00 | 0.00 | 0.00 | 69 | 1010.5 |
| 20260505053504 | 59 | 198 | 1.7 | 7.8 | 0.00 | 0.00 | 0.00 | 70 | 1010.5 |
| 20260505053006 | 59 | 194 | 1.7 | 5.2 | 0.00 | 0.00 | 0.00 | 70 | 1010.5 |
| 20260505052004 | 59 | 196 | 1.7 | 6.1 | 0.00 | 0.00 | 0.00 | 71 | 1010.5 |
| 20260505051504 | 58 | 181 | 0.9 | 4.3 | 0.00 | 0.00 | 0.00 | 72 | 1010.5 |
| 20260505051004 | 58 | 183 | 1.7 | 6.1 | 0.00 | 0.00 | 0.00 | 72 | 1010.4 |
| 20260505050505 | 58 | 176 | 1.7 | 6.1 | 0.00 | 0.00 | 0.00 | 72 | 1010.4 |
| 20260505041505 | 60 | 187 | 1.7 | 7.0 | 0.00 | 0.00 | 0.00 | 69 | 1010.6 |
| 20260505041004 | 59 | 185 | 1.7 | 6.1 | 0.00 | 0.00 | 0.00 | 68 | 1010.5 |
| 20260505040504 | 60 | 188 | 2.6 | 7.8 | 0.00 | 0.00 | 0.00 | 68 | 1010.5 |
| 20260505040009 | 60 | 194 | 2.6 | 7.8 | 0.00 | 0.00 | 0.00 | 68 | 1010.6 |
| 20260505035506 | 60 | 191 | 2.6 | 6.1 | 0.00 | 0.00 | 0.00 | 67 | 1010.6 |
| 20260505035006 | 60 | 188 | 2.6 | 6.1 | 0.00 | 0.00 | 0.00 | 67 | 1010.6 |
| 20260505034504 | 60 | 189 | 1.7 | 6.1 | 0.00 | 0.00 | 0.00 | 68 | 1010.6 |
| 20260505033504 | 60 | 189 | 1.7 | 6.1 | 0.00 | 0.00 | 0.00 | 67 | 1010.6 |
| 20260505033004 | 60 | 189 | 1.7 | 6.1 | 0.00 | 0.00 | 0.00 | 67 | 1010.6 |
| 20260505032006 | 60 | 187 | 2.6 | 7.0 | 0.00 | 0.00 | 0.00 | 65 | 1010.6 |
| 20260505031506 | 60 | 182 | 2.6 | 7.0 | 0.00 | 0.00 | 0.00 | 65 | 1010.6 |
| 20260505031005 | 60 | 189 | 1.7 | 6.1 | 0.00 | 0.00 | 0.00 | 65 | 1010.7 |
| 20260505030504 | 60 | 192 | 1.7 | 6.1 | 0.00 | 0.00 | 0.00 | 64 | 1010.7 |
| 20260505030005 | 61 | 184 | 1.7 | 6.1 | 0.00 | 0.00 | 0.00 | 64 | 1010.8 |
| 20260505025505 | 61 | 189 | 2.6 | 7.0 | 0.00 | 0.00 | 0.00 | 63 | 1010.7 |
| 20260505024505 | 61 | 193 | 1.7 | 6.1 | 0.00 | 0.00 | 0.00 | 62 | 1010.7 |
| 20260505024005 | 61 | 196 | 2.6 | 6.1 | 0.00 | 0.00 | 0.00 | 62 | 1010.8 |
| 20260505023505 | 62 | 193 | 2.6 | 6.1 | 0.00 | 0.00 | 0.00 | 61 | 1010.7 |
| 20260505023005 | 62 | 187 | 2.6 | 7.0 | 0.00 | 0.00 | 0.00 | 61 | 1010.7 |
| 20260505022505 | 62 | 186 | 2.6 | 7.0 | 0.00 | 0.00 | 0.00 | 60 | 1010.8 |
| 20260505022005 | 62 | 187 | 1.7 | 6.1 | 0.00 | 0.00 | 0.00 | 60 | 1010.8 |
| 20260505021504 | 62 | 182 | 1.7 | 7.0 | 0.00 | 0.00 | 0.00 | 59 | 1010.9 |
| 20260505021005 | 62 | 179 | 2.6 | 7.0 | 0.00 | 0.00 | 0.00 | 58 | 1010.9 |
| 20260505020505 | 62 | 189 | 1.7 | 6.1 | 0.00 | 0.00 | 0.00 | 58 | 1010.9 |
| 20260505015505 | 62 | 190 | 1.7 | 6.1 | 0.00 | 0.00 | 0.00 | 57 | 1010.8 |
| 20260505015005 | 62 | 191 | 1.7 | 6.1 | 0.00 | 0.00 | 0.00 | 56 | 1010.8 |
| 20260505014505 | 63 | 188 | 1.7 | 7.0 | 0.00 | 0.00 | 0.00 | 54 | 1010.8 |
| 20260505014005 | 63 | 190 | 1.7 | 7.0 | 0.00 | 0.00 | 0.00 | 53 | 1010.8 |
| 20260505013506 | 63 | 177 | 2.6 | 8.7 | 0.00 | 0.00 | 0.00 | 52 | 1010.8 |
| 20260505013004 | 63 | 177 | 2.6 | 8.7 | 0.00 | 0.00 | 0.00 | 52 | 1010.7 |
| 20260505011505 | 63 | 200 | 1.7 | 5.2 | 0.00 | 0.00 | 0.00 | 50 | 1010.5 |
| 20260505011005 | 64 | 199 | 1.7 | 5.2 | 0.00 | 0.00 | 0.00 | 47 | 1010.5 |
| 20260505010505 | 64 | 194 | 1.7 | 6.1 | 0.00 | 0.00 | 0.00 | 48 | 1010.5 |
| 20260505010005 | 64 | 194 | 1.7 | 6.1 | 0.00 | 0.00 | 0.00 | 48 | 1010.3 |
| 20260505005005 | 63 | 194 | 0.9 | 2.6 | 0.00 | 0.00 | 0.00 | 50 | 1010.2 |
| 20260505004505 | 63 | 190 | 0.9 | 3.5 | 0.00 | 0.00 | 0.00 | 50 | 1010.2 |
| 20260505004005 | 64 | 188 | 0.9 | 5.2 | 0.00 | 0.00 | 0.00 | 48 | 1010.2 |
| 20260505003505 | 64 | 187 | 0.9 | 5.2 | 0.00 | 0.00 | 0.00 | 48 | 1010.1 |
| 20260505003006 | 65 | 184 | 0.9 | 3.5 | 0.00 | 0.00 | 0.00 | 46 | 1010.0 |
| 20260505002506 | 66 | 177 | 0.9 | 6.1 | 0.00 | 0.00 | 0.00 | 44 | 1009.9 |
| 20260505002005 | 67 | 186 | 1.7 | 6.1 | 0.00 | 0.00 | 0.00 | 43 | 1009.9 |
| 20260505001505 | 68 | 194 | 1.7 | 5.2 | 0.00 | 0.00 | 0.00 | 41 | 1009.9 |
| 20260505001005 | 67 | 193 | 1.7 | 6.1 | 0.00 | 0.00 | 0.00 | 42 | 1009.9 |
| 20260505000505 | 68 | 193 | 2.6 | 6.1 | 0.00 | 0.00 | 0.00 | 40 | 1009.8 |
| 20260505000005 | 69 | 196 | 2.6 | 6.1 | 0.00 | 0.00 | 0.00 | 39 | 1009.8 |
| 20260504235506 | 69 | 203 | 2.6 | 8.7 | 0.00 | 0.00 | 0.00 | 38 | 1009.8 |
| 20260504235005 | 69 | 196 | 4.3 | 9.6 | 0.00 | 0.00 | 0.00 | 38 | 1009.7 |
| 20260504234505 | 70 | 193 | 4.3 | 9.6 | 0.00 | 0.00 | 0.00 | 37 | 1009.7 |
| 20260504234005 | 70 | 198 | 2.6 | 8.7 | 0.00 | 0.00 | 0.00 | 38 | 1009.7 |
| 20260504233005 | 70 | 214 | 3.5 | 9.6 | 0.00 | 0.00 | 0.00 | 36 | 1009.6 |
| 20260504232505 | 70 | 212 | 2.6 | 8.7 | 0.00 | 0.00 | 0.00 | 36 | 1009.6 |
| 20260504232005 | 70 | 223 | 2.6 | 7.0 | 0.00 | 0.00 | 0.00 | 36 | 1009.5 |
| 20260504231504 | 71 | 235 | 3.5 | 8.7 | 0.00 | 0.00 | 0.00 | 35 | 1009.5 |
| 20260504231005 | 71 | 241 | 5.2 | 10.4 | 0.00 | 0.00 | 0.00 | 35 | 1009.5 |
| 20260504230505 | 71 | 244 | 4.3 | 10.4 | 0.00 | 0.00 | 0.00 | 35 | 1009.4 |
| 20260504230005 | 71 | 234 | 3.5 | 7.8 | 0.00 | 0.00 | 0.00 | 35 | 1009.5 |
| 20260504225506 | 71 | 227 | 4.3 | 9.6 | 0.00 | 0.00 | 0.00 | 34 | 1009.5 |
| 20260504225005 | 71 | 230 | 5.2 | 13.0 | 0.00 | 0.00 | 0.00 | 34 | 1009.6 |
| 20260504224505 | 71 | 235 | 5.2 | 13.0 | 0.00 | 0.00 | 0.00 | 34 | 1009.6 |
| 20260504223506 | 71 | 233 | 5.2 | 12.2 | 0.00 | 0.00 | 0.00 | 34 | 1009.5 |
| 20260504222005 | 72 | 239 | 5.2 | 16.5 | 0.00 | 0.00 | 0.00 | 33 | 1009.5 |
| 20260504221505 | 72 | 237 | 4.3 | 10.4 | 0.00 | 0.00 | 0.00 | 34 | 1009.5 |
| 20260504221008 | 72 | 236 | 4.3 | 11.3 | 0.00 | 0.00 | 0.00 | 34 | 1009.6 |
| 20260504220506 | 72 | 235 | 3.5 | 11.3 | 0.00 | 0.00 | 0.00 | 33 | 1009.6 |
| 20260504220005 | 72 | 253 | 3.5 | 9.6 | 0.00 | 0.00 | 0.00 | 35 | 1009.6 |
| 20260504215005 | 72 | 240 | 5.2 | 12.2 | 0.00 | 0.00 | 0.00 | 32 | 1009.7 |
| 20260504213505 | 73 | 247 | 5.2 | 11.3 | 0.00 | 0.00 | 0.00 | 33 | 1009.7 |
| 20260504213006 | 73 | 237 | 4.3 | 10.4 | 0.00 | 0.00 | 0.00 | 32 | 1009.7 |
| 20260504212506 | 73 | 225 | 5.2 | 11.3 | 0.00 | 0.00 | 0.00 | 33 | 1009.7 |
| 20260504212005 | 73 | 231 | 6.1 | 13.0 | 0.00 | 0.00 | 0.00 | 32 | 1009.7 |
| 20260504211505 | 73 | 237 | 6.1 | 13.0 | 0.00 | 0.00 | 0.00 | 31 | 1009.7 |
| 20260504211005 | 73 | 234 | 5.2 | 11.3 | 0.00 | 0.00 | 0.00 | 33 | 1009.6 |
| 20260504210505 | 73 | 236 | 6.1 | 13.9 | 0.00 | 0.00 | 0.00 | 32 | 1009.8 |
| 20260504205505 | 74 | 229 | 5.2 | 14.8 | 0.00 | 0.00 | 0.00 | 32 | 1009.7 |
| 20260504205006 | 74 | 244 | 5.2 | 14.8 | 0.00 | 0.00 | 0.00 | 32 | 1009.7 |
| 20260504204005 | 73 | 260 | 6.1 | 15.6 | 0.00 | 0.00 | 0.00 | 32 | 1009.9 |
| 20260504203005 | 74 | 240 | 5.2 | 12.2 | 0.00 | 0.00 | 0.00 | 32 | 1009.7 |
| 20260504202505 | 73 | 243 | 6.1 | 16.5 | 0.00 | 0.00 | 0.00 | 31 | 1009.8 |
| 20260504202006 | 74 | 238 | 6.1 | 16.5 | 0.00 | 0.00 | 0.00 | 30 | 1009.8 |
| 20260504201505 | 74 | 229 | 5.2 | 12.2 | 0.00 | 0.00 | 0.00 | 33 | 1009.8 |
| 20260504201005 | 74 | 234 | 5.2 | 15.6 | 0.00 | 0.00 | 0.00 | 31 | 1009.8 |
| 20260504200505 | 74 | 233 | 4.3 | 15.6 | 0.00 | 0.00 | 0.00 | 32 | 1009.8 |
| 20260504200005 | 74 | 233 | 4.3 | 11.3 | 0.00 | 0.00 | 0.00 | 33 | 1010.0 |
| 20260504195505 | 74 | 216 | 5.2 | 14.8 | 0.00 | 0.00 | 0.00 | 32 | 1009.9 |
| 20260504195006 | 74 | 214 | 6.1 | 14.8 | 0.00 | 0.00 | 0.00 | 31 | 1009.9 |
| 20260504194504 | 73 | 233 | 7.0 | 17.4 | 0.00 | 0.00 | 0.00 | 33 | 1010.0 |
| 20260504194006 | 73 | 233 | 6.1 | 17.4 | 0.00 | 0.00 | 0.00 | 33 | 1010.1 |
| 20260504193506 | 73 | 231 | 5.2 | 13.0 | 0.00 | 0.00 | 0.00 | 32 | 1010.1 |
| 20260504193005 | 73 | 229 | 5.2 | 13.0 | 0.00 | 0.00 | 0.00 | 32 | 1010.3 |
| 20260504192505 | 73 | 244 | 3.5 | 9.6 | 0.00 | 0.00 | 0.00 | 32 | 1010.4 |
| 20260504191505 | 73 | 224 | 5.2 | 12.2 | 0.00 | 0.00 | 0.00 | 31 | 1010.5 |
| 20260504191005 | 73 | 222 | 5.2 | 13.9 | 0.00 | 0.00 | 0.00 | 33 | 1010.7 |
| 20260504190505 | 73 | 222 | 5.2 | 13.9 | 0.00 | 0.00 | 0.00 | 33 | 1010.6 |
| 20260504190006 | 73 | 229 | 4.3 | 13.9 | 0.00 | 0.00 | 0.00 | 31 | 1010.7 |
| 20260504185505 | 73 | 255 | 3.5 | 10.4 | 0.00 | 0.00 | 0.00 | 32 | 1010.8 |
| 20260504185005 | 73 | 255 | 4.3 | 13.9 | 0.00 | 0.00 | 0.00 | 32 | 1010.9 |
| 20260504184506 | 73 | 249 | 5.2 | 16.5 | 0.00 | 0.00 | 0.00 | 33 | 1011.0 |
| 20260504184004 | 72 | 244 | 5.2 | 16.5 | 0.00 | 0.00 | 0.00 | 33 | 1011.1 |
| 20260504183505 | 72 | 233 | 7.0 | 15.6 | 0.00 | 0.00 | 0.00 | 33 | 1011.1 |
| 20260504182504 | 72 | 231 | 6.1 | 17.4 | 0.00 | 0.00 | 0.00 | 35 | 1011.3 |
| 20260504182005 | 72 | 244 | 5.2 | 17.4 | 0.00 | 0.00 | 0.00 | 33 | 1011.4 |
| 20260504181505 | 72 | 260 | 5.2 | 18.2 | 0.00 | 0.00 | 0.00 | 32 | 1011.4 |
| 20260504180505 | 72 | 218 | 4.3 | 14.8 | 0.00 | 0.00 | 0.00 | 33 | 1011.5 |
| 20260504180005 | 71 | 217 | 5.2 | 14.8 | 0.00 | 0.00 | 0.00 | 33 | 1011.5 |
| 20260504175505 | 71 | 232 | 6.1 | 16.5 | 0.00 | 0.00 | 0.00 | 32 | 1011.7 |
| 20260504175005 | 71 | 239 | 7.0 | 16.5 | 0.00 | 0.00 | 0.00 | 33 | 1011.8 |
| 20260504174505 | 71 | 242 | 6.1 | 15.6 | 0.00 | 0.00 | 0.00 | 34 | 1012.0 |
| 20260504174005 | 71 | 236 | 5.2 | 15.6 | 0.00 | 0.00 | 0.00 | 32 | 1011.9 |
| 20260504173505 | 71 | 240 | 6.1 | 19.1 | 0.00 | 0.00 | 0.00 | 32 | 1012.0 |
| 20260504173005 | 71 | 244 | 5.2 | 19.1 | 0.00 | 0.00 | 0.00 | 34 | 1012.0 |
| 20260504172506 | 71 | 238 | 5.2 | 18.2 | 0.00 | 0.00 | 0.00 | 37 | 1012.1 |
| 20260504172006 | 70 | 236 | 6.1 | 18.2 | 0.00 | 0.00 | 0.00 | 35 | 1012.1 |
| 20260504170505 | 69 | 225 | 7.0 | 14.8 | 0.00 | 0.00 | 0.00 | 35 | 1012.4 |
| 20260504151006 | 66 | 246 | 6.1 | 14.8 | 0.00 | 0.00 | 0.00 | 45 | 1013.5 |
| 20260504141005 | 63 | 230 | 4.3 | 9.6 | 0.00 | 0.00 | 0.00 | 51 | 1013.8 |
| 20260504140506 | 63 | 240 | 5.2 | 12.2 | 0.00 | 0.00 | 0.00 | 54 | 1013.7 |
| 20260504110505 | 51 | 225 | 3.5 | 8.7 | 0.00 | 0.00 | 0.00 | 73 | 1015.1 |
| 20260504100507 | 49 | 219 | 2.6 | 7.8 | 0.00 | 0.00 | 0.00 | 70 | 1015.1 |
| 20260504082005 | 46 | 218 | 0.9 | 3.5 | 0.00 | 0.00 | 0.00 | 66 | 1014.9 |
| 20260504081006 | 46 | 224 | 1.7 | 6.1 | 0.00 | 0.00 | 0.00 | 66 | 1014.9 |
| 20260504080505 | 46 | 233 | 1.7 | 5.2 | 0.00 | 0.00 | 0.00 | 65 | 1014.8 |